When you browse on this site, cookies collect data to enhance your experience and personalize the content and advertising you see.
Visit our Privacy Policy to learn more. By continuing to use the site, you agree to this use of cookies and data.
  • In United Kingdom
  • List of Countries
  • For 7 days
  • Water Temperature
  • Satellite Maps
  • Weather Map
  • Weather Widgets
  • user-avatar
    Login

    Hourly Weather Mafeteng

    Today, 22 April, Monday

    Time Temperature Precipitation Wind Pressure Humidity
    00:00 +11°C° 0.1 mm 1 mps 627 mmHg 80%
    01:00 +11°C° 0.1 mm 1 mps 628 mmHg 79%
    02:00 +12°C° 0 mm 1 mps 628 mmHg 74%
    03:00 +12°C° 0.2 mm 1 mps 628 mmHg 76%
    04:00 +11°C° 0.2 mm 1 mps 628 mmHg 78%
    05:00 +11°C° 0.2 mm 1 mps 628 mmHg 80%
    06:00 +12°C° 0 mm 1 mps 628 mmHg 77%
    07:00 +12°C° 0 mm 1 mps 628 mmHg 74%
    08:00 +13°C° 0 mm 1 mps 629 mmHg 71%
    09:00 +14°C° 0.3 mm 1 mps 629 mmHg 65%
    10:00 +16°C° 0.3 mm 1 mps 630 mmHg 59%
    11:00 +16°C° 0.3 mm 0 mps 630 mmHg 53%
    12:00 +17°C° 0.6 mm 2 mps 630 mmHg 53%
    13:00 +18°C° 0.6 mm 3 mps 630 mmHg 53%
    14:00 +18°C° 0.6 mm 4 mps 629 mmHg 54%
    15:00 +17°C° 0.8 mm 4 mps 629 mmHg 59%
    16:00 +15°C° 0.8 mm 4 mps 629 mmHg 63%
    17:00 +14°C° 0.8 mm 4 mps 628 mmHg 68%
    18:00 +14°C° 0.2 mm 3 mps 628 mmHg 72%
    19:00 +13°C° 0.2 mm 3 mps 628 mmHg 76%
    20:00 +12°C° 0.2 mm 3 mps 628 mmHg 81%
    21:00 +12°C° 0.8 mm 3 mps 628 mmHg 81%
    22:00 +12°C° 0.8 mm 3 mps 628 mmHg 82%
    23:00 +12°C° 0.8 mm 3 mps 628 mmHg 82%

    Tomorrow, 23 April, Tuesday

    Time Temperature Precipitation Wind Pressure Humidity
    00:00 +11°C° 3.6 mm 3 mps 627 mmHg 85%
    01:00 +11°C° 3.6 mm 3 mps 627 mmHg 87%
    02:00 +10°C° 3.6 mm 3 mps 627 mmHg 89%
    03:00 +10°C° 1.7 mm 3 mps 627 mmHg 89%
    04:00 +10°C° 1.7 mm 2 mps 627 mmHg 89%
    05:00 +10°C° 1.7 mm 2 mps 627 mmHg 88%
    06:00 +10°C° 3.2 mm 2 mps 627 mmHg 88%
    07:00 +10°C° 3.2 mm 3 mps 627 mmHg 88%
    08:00 +10°C° 3.2 mm 3 mps 627 mmHg 88%
    09:00 +10°C° 0.7 mm 3 mps 628 mmHg 85%
    10:00 +11°C° 0.7 mm 3 mps 628 mmHg 81%
    11:00 +12°C° 0.7 mm 4 mps 628 mmHg 78%
    12:00 +13°C° 0.5 mm 4 mps 628 mmHg 75%
    13:00 +14°C° 0.5 mm 4 mps 628 mmHg 72%
    14:00 +15°C° 0.5 mm 5 mps 628 mmHg 70%
    15:00 +15°C° 1.4 mm 4 mps 628 mmHg 73%
    16:00 +14°C° 1.4 mm 3 mps 628 mmHg 75%
    17:00 +14°C° 1.4 mm 3 mps 627 mmHg 78%
    18:00 +15°C° 1 mm 2 mps 628 mmHg 80%
    19:00 +14°C° 1 mm 2 mps 628 mmHg 81%
    20:00 +14°C° 1 mm 2 mps 628 mmHg 83%
    21:00 +13°C° 0.9 mm 2 mps 628 mmHg 84%
    22:00 +13°C° 0.9 mm 2 mps 628 mmHg 86%
    23:00 +13°C° 0.9 mm 2 mps 628 mmHg 88%

    Day after tomorrow, 24 April, Wednesday

    Time Temperature Precipitation Wind Pressure Humidity
    00:00 +12°C° 1.6 mm 3 mps 628 mmHg 89%
    01:00 +11°C° 1.6 mm 3 mps 628 mmHg 90%
    02:00 +11°C° 1.6 mm 3 mps 627 mmHg 91%
    03:00 +11°C° 0.7 mm 3 mps 627 mmHg 91%
    04:00 +10°C° 0.7 mm 3 mps 627 mmHg 90%
    05:00 +10°C° 0.7 mm 3 mps 626 mmHg 90%
    06:00 +11°C° 0.8 mm 3 mps 627 mmHg 88%
    07:00 +11°C° 0.8 mm 3 mps 627 mmHg 87%
    08:00 +12°C° 0.8 mm 3 mps 628 mmHg 86%
    09:00 +13°C° 0.2 mm 4 mps 628 mmHg 78%
    10:00 +15°C° 0.2 mm 5 mps 629 mmHg 71%
    11:00 +17°C° 0.2 mm 6 mps 629 mmHg 64%
    12:00 +17°C° 0.3 mm 5 mps 629 mmHg 61%
    13:00 +19°C° 0.3 mm 5 mps 628 mmHg 57%
    14:00 +19°C° 0.3 mm 5 mps 628 mmHg 54%
    15:00 +19°C° 0.4 mm 4 mps 628 mmHg 57%
    16:00 +18°C° 0.4 mm 3 mps 628 mmHg 60%
    17:00 +18°C° 0.4 mm 2 mps 627 mmHg 63%
    18:00 +17°C° 0.1 mm 2 mps 627 mmHg 65%
    19:00 +16°C° 0.1 mm 2 mps 627 mmHg 68%
    20:00 +15°C° 0.1 mm 2 mps 628 mmHg 70%
    21:00 +14°C° 0.7 mm 2 mps 627 mmHg 74%
    22:00 +13°C° 0.7 mm 2 mps 627 mmHg 77%
    23:00 +13°C° 0.7 mm 2 mps 627 mmHg 81%

    25 April, Thursday

    Time Temperature Precipitation Wind Pressure Humidity
    00:00 +12°C° 0.2 mm 2 mps 627 mmHg 81%
    01:00 +12°C° 0.2 mm 2 mps 626 mmHg 82%
    02:00 +12°C° 0.2 mm 2 mps 626 mmHg 82%
    03:00 +12°C° 0.3 mm 2 mps 626 mmHg 83%
    04:00 +10°C° 0.3 mm 2 mps 626 mmHg 85%
    05:00 +11°C° 0.3 mm 1 mps 625 mmHg 86%
    06:00 +12°C° 0 mm 2 mps 626 mmHg 82%
    07:00 +13°C° 0 mm 2 mps 627 mmHg 79%
    08:00 +14°C° 0 mm 2 mps 627 mmHg 75%
    09:00 +16°C° 0 mm 3 mps 628 mmHg 69%
    10:00 +17°C° 0 mm 4 mps 628 mmHg 62%
    11:00 +19°C° 0 mm 4 mps 628 mmHg 56%
    12:00 +20°C° 0 mm 5 mps 628 mmHg 50%
    13:00 +20°C° 0 mm 5 mps 627 mmHg 43%
    14:00 +21°C° 0 mm 5 mps 627 mmHg 37%
    15:00 +20°C° 0 mm 5 mps 627 mmHg 40%
    16:00 +19°C° 0 mm 4 mps 627 mmHg 42%
    17:00 +18°C° 0 mm 3 mps 626 mmHg 44%
    18:00 +17°C° 0 mm 2 mps 626 mmHg 48%
    19:00 +15°C° 0 mm 2 mps 626 mmHg 52%
    20:00 +13°C° 0 mm 1 mps 626 mmHg 57%
    21:00 +13°C° 0 mm 1 mps 626 mmHg 59%
    22:00 +12°C° 0 mm 1 mps 626 mmHg 61%
    23:00 +11°C° 0 mm 0 mps 625 mmHg 63%

    26 April, Friday

    Time Temperature Precipitation Wind Pressure Humidity
    00:00 +12°C° 0 mm 1 mps 625 mmHg 63%
    01:00 +11°C° 0 mm 1 mps 625 mmHg 63%
    02:00 +11°C° 0 mm 1 mps 625 mmHg 63%
    03:00 +10°C° 0 mm 0 mps 624 mmHg 65%
    04:00 +9°C° 0 mm 0 mps 624 mmHg 66%
    05:00 +9°C° 0 mm 0 mps 624 mmHg 67%
    06:00 +11°C° 0 mm 0 mps 625 mmHg 63%
    07:00 +12°C° 0 mm 0 mps 626 mmHg 58%
    08:00 +15°C° 0 mm 1 mps 627 mmHg 54%
    09:00 +16°C° 0 mm 1 mps 628 mmHg 49%
    10:00 +19°C° 0 mm 1 mps 628 mmHg 44%
    11:00 +20°C° 0 mm 1 mps 628 mmHg 39%
    12:00 +21°C° 0 mm 1 mps 628 mmHg 37%
    13:00 +20°C° 0 mm 2 mps 628 mmHg 35%
    14:00 +21°C° 0 mm 2 mps 627 mmHg 33%
    15:00 +21°C° 0 mm 2 mps 627 mmHg 37%
    16:00 +20°C° 0 mm 2 mps 627 mmHg 40%
    17:00 +21°C° 0 mm 1 mps 627 mmHg 43%
    18:00 +19°C° 0 mm 1 mps 627 mmHg 47%
    19:00 +15°C° 0 mm 0 mps 626 mmHg 51%
    20:00 +13°C° 0 mm 0 mps 626 mmHg 55%
    21:00 +13°C° 0 mm 0 mps 626 mmHg 56%
    22:00 +12°C° 0 mm 0 mps 626 mmHg 56%
    23:00 +12°C° 0 mm 0 mps 626 mmHg 57%

    27 April, Saturday

    Time Temperature Precipitation Wind Pressure Humidity
    00:00 +11°C° 0 mm 0 mps 626 mmHg 58%
    01:00 +11°C° 0 mm 0 mps 625 mmHg 59%
    02:00 +10°C° 0 mm 0 mps 625 mmHg 60%
    03:00 +10°C° 0 mm 0 mps 625 mmHg 62%
    04:00 +10°C° 0 mm 0 mps 625 mmHg 63%
    05:00 +9°C° 0 mm 0 mps 625 mmHg 64%
    06:00 +11°C° 0 mm 0 mps 626 mmHg 61%
    07:00 +13°C° 0 mm 0 mps 627 mmHg 58%
    08:00 +15°C° 0 mm 0 mps 628 mmHg 55%
    09:00 +17°C° 0 mm 0 mps 629 mmHg 48%
    10:00 +18°C° 0 mm 0 mps 629 mmHg 41%
    11:00 +20°C° 0 mm 0 mps 630 mmHg 33%
    12:00 +22°C° 0 mm 1 mps 630 mmHg 31%
    13:00 +23°C° 0 mm 1 mps 629 mmHg 29%
    14:00 +24°C° 0 mm 2 mps 629 mmHg 27%
    15:00 +23°C° 0 mm 1 mps 629 mmHg 31%
    16:00 +22°C° 0 mm 1 mps 629 mmHg 35%
    17:00 +22°C° 0 mm 1 mps 629 mmHg 40%
    18:00 +20°C° 0 mm 1 mps 629 mmHg 42%
    19:00 +18°C° 0 mm 1 mps 628 mmHg 45%
    20:00 +15°C° 0 mm 1 mps 628 mmHg 48%
    21:00 +13°C° 0 mm 0 mps 628 mmHg 49%
    22:00 +13°C° 0 mm 0 mps 628 mmHg 50%
    23:00 +12°C° 0 mm 0 mps 628 mmHg 51%
    Show more